Location: Eexterzandvoort
(53.0303°N, 6.7884°E)
Time: 06:24:34
(UTC+00:00)

Cosmos 2056 Rocket - Pass Details

Date: 19 May 2025
Orbit: 739 x 796 km, 74.0° (Epoch: 22 June)

Event Time Altitude Azimuth Distance (km) Brightness Sun altitude
Rises 22:39:07 0° 335° (NNW) 3,294 8.4 -16.2°
Reaches altitude 10° 22:41:40 10° 343° (NNW) 2,354 7.4 -16.3°
Maximum altitude 22:46:45 43° 54° (NE) 1,090 4.5 -16.4°
Enters shadow 22:50:56 14° 122° (ESE) 2,019 5.3 -16.5°
